Weather History for KPPQ - March, 2013

Change the Weather History Date:

Thursday, March 14, 2013

  Actual Average (KUIN) Record (KUIN)
Temperature  
Mean Temperature 41 °F 41 °F  
Max Temperature 55 °F 51 °F 85 °F (1918)
Min Temperature 27 °F 32 °F 7 °F (1960)
Degree Days  
Heating Degree Days 24 24  
Month to date heating degree days 372  
Since 1 July heating degree days 4714  
Cooling Degree Days 0 0  
Month to date cooling degree days 0  
Year to date cooling degree days 0  
Moisture  
Dew Point 28 °F    
Average Humidity 67    
Maximum Humidity 90    
Minimum Humidity 42    
Precipitation  
Precipitation 0.00 in 0.07 in 1.71 in (1922)
Month to date precipitation 1.06  
Year to date precipitation 4.46  
Sea Level Pressure  
Sea Level Pressure 30.21 in    
Wind  
Wind Speed 5 mph (SSE)    
Max Wind Speed 15 mph    
Max Gust Speed 20 mph    
Visibility 10 miles    
Events Rain    
T = Trace of Precipitation, MM = Missing Value Source: NWS Daily Summary

Daily Weather History Graph

Daily Weather History Graph

Search for Another Location

Airport or City:

Trip Planner

Search our weather history database for the weather conditions in past years. The results will help you decide how hot, cold, wet, or windy it might be!

Date:

Astronomy

Mar. 14, 2013 Rise Set
Actual Time 7:15 AM CDT 7:09 PM CDT
Civil Twilight 6:48 AM CDT 7:36 PM CDT
Nautical Twilight 6:17 AM CDT 8:07 PM CDT
Astronomical Twilight 5:46 AM CDT 8:39 PM CDT
Moon 8:30 AM CDT (3/14) 10:25 PM CDT (3/14)
Length of Visible Light 12h 47m
Length of Day
11h 53m
Waxing Crescent, 9% of the Moon is Illuminated
Mar 14
Waxing Crescent
Mar 19
First Quarter
Mar 27
Full
Apr 2
Last Quarter
Apr 10
New

Hourly Weather History & Observations

Time (CDT) Temp. Windchill Dew Point Humidity Pressure Visibility Wind Dir Wind Speed Gust Speed Precip Events Conditions
12:15 AM 28.0 °F - 25.5 °F 90% 30.38 in 10.0 mi Calm Calm - N/A   Clear
12:35 AM 28.2 °F - 25.3 °F 89% 30.38 in 10.0 mi Calm Calm - N/A   Clear
12:55 AM 28.4 °F 24.6 °F 23.9 °F 83% 30.38 in 10.0 mi SW 3.5 mph - N/A   Clear
1:15 AM 28.4 °F - 23.4 °F 81% 30.38 in 10.0 mi Calm Calm - N/A   Clear
1:35 AM 27.5 °F - 24.4 °F 88% 30.37 in 10.0 mi Calm Calm - N/A   Clear
1:55 AM 28.6 °F - 25.7 °F 89% 30.37 in 10.0 mi Calm Calm - N/A   Clear
2:15 AM 27.9 °F - 23.9 °F 85% 30.37 in 10.0 mi Calm Calm - N/A   Clear
2:35 AM 28.4 °F 24.6 °F 24.6 °F 86% 30.37 in 10.0 mi SSW 3.5 mph - N/A   Clear
2:55 AM 28.8 °F - 24.6 °F 84% 30.36 in 10.0 mi Calm Calm - N/A   Clear
3:15 AM 29.3 °F - 24.3 °F 81% 30.35 in 10.0 mi Calm Calm - N/A   Scattered Clouds
3:35 AM 30.0 °F 26.5 °F 23.7 °F 77% 30.34 in 10.0 mi South 3.5 mph - N/A   Overcast
3:55 AM 30.4 °F 25.6 °F 23.0 °F 74% 30.35 in 10.0 mi South 4.6 mph - N/A   Overcast
4:15 AM 30.4 °F 25.6 °F 24.1 °F 77% 30.32 in 10.0 mi SSE 4.6 mph - N/A   Overcast
4:35 AM 30.6 °F 25.8 °F 24.6 °F 79% 30.31 in 10.0 mi SSE 4.6 mph - N/A   Overcast
4:55 AM 30.6 °F 25.8 °F 24.6 °F 79% 30.32 in 10.0 mi South 4.6 mph - N/A   Overcast
5:15 AM 31.1 °F 25.4 °F 22.3 °F 70% 30.32 in 10.0 mi South 5.8 mph - N/A   Mostly Cloudy
5:35 AM 30.7 °F 24.9 °F 22.6 °F 72% 30.32 in 10.0 mi South 5.8 mph - N/A   Overcast
5:55 AM 31.1 °F 26.4 °F 22.6 °F 71% 30.31 in 10.0 mi South 4.6 mph - N/A   Overcast
6:15 AM 30.7 °F 26.0 °F 23.7 °F 75% 30.31 in 10.0 mi South 4.6 mph - N/A   Overcast
6:35 AM 31.1 °F 25.4 °F 23.0 °F 72% 30.31 in 10.0 mi South 5.8 mph - N/A   Overcast
6:55 AM 31.5 °F 26.8 °F 23.7 °F 73% 30.31 in 10.0 mi South 4.6 mph - N/A   Overcast
7:15 AM 31.6 °F 27.0 °F 23.4 °F 71% 30.31 in 10.0 mi South 4.6 mph - N/A   Scattered Clouds
7:35 AM 32.0 °F 26.4 °F 24.1 °F 73% 30.31 in 10.0 mi SSE 5.8 mph - N/A   Mostly Cloudy
7:55 AM 32.0 °F 26.4 °F 24.6 °F 74% 30.30 in 10.0 mi SSE 5.8 mph - N/A   Scattered Clouds
8:15 AM 32.9 °F 27.5 °F 24.6 °F 72% 30.30 in 10.0 mi SSE 5.8 mph - N/A   Mostly Cloudy
8:35 AM 33.3 °F 26.4 °F 24.8 °F 71% 30.30 in 10.0 mi SSE 8.1 mph - N/A   Scattered Clouds
8:55 AM 34.0 °F 25.5 °F 25.2 °F 70% 30.29 in 10.0 mi SSE 11.5 mph - N/A   Scattered Clouds
9:15 AM 34.7 °F 26.9 °F 25.0 °F 68% 30.28 in 10.0 mi SSE 10.4 mph - N/A   Scattered Clouds
9:35 AM 35.1 °F 27.9 °F 25.3 °F 68% 30.28 in 10.0 mi SSE 9.2 mph - N/A   Mostly Cloudy
9:55 AM 35.6 °F 30.7 °F 26.1 °F 68% 30.28 in 10.0 mi SE 5.8 mph - N/A   Mostly Cloudy
10:15 AM 35.2 °F 29.5 °F 25.3 °F 67% 30.28 in 10.0 mi ESE 6.9 mph - N/A   Overcast
10:35 AM 36.1 °F 30.6 °F 26.1 °F 67% 30.27 in 10.0 mi SE 6.9 mph - N/A   Overcast
10:55 AM 36.9 °F 29.1 °F 26.2 °F 65% 30.25 in 10.0 mi ESE 11.5 mph - N/A   Overcast
11:15 AM 37.8 °F 30.7 °F 26.8 °F 65% 30.23 in 10.0 mi SSE 10.4 mph - N/A   Overcast
11:35 AM 39.7 °F 33.7 °F 26.8 °F 60% 30.21 in 10.0 mi SE 9.2 mph - N/A   Overcast
11:55 AM 42.4 °F 36.5 °F 28.0 °F 57% 30.20 in 10.0 mi SSE 10.4 mph - N/A   Scattered Clouds
12:15 PM 41.9 °F 34.3 °F 25.2 °F 52% 30.18 in 10.0 mi South 15.0 mph 19.6 mph N/A   Clear
12:35 PM 44.4 °F 38.2 °F 27.3 °F 51% 30.17 in 10.0 mi South 12.7 mph - N/A   Clear
12:55 PM 42.8 °F 35.8 °F 26.1 °F 52% 30.18 in 10.0 mi SSW 13.8 mph 19.6 mph N/A   Mostly Cloudy
1:15 PM 40.6 °F 32.7 °F 28.9 °F 63% 30.14 in 10.0 mi SSE 15.0 mph - N/A Rain Light Rain
1:35 PM 42.8 °F 38.0 °F 30.0 °F 61% 30.15 in 10.0 mi SSE 8.1 mph 17.3 mph N/A   Scattered Clouds
1:55 PM 45.9 °F 40.0 °F 31.1 °F 56% 30.14 in 10.0 mi South 12.7 mph - N/A   Clear
2:15 PM 48.0 °F - 31.5 °F 53% 30.13 in 10.0 mi South 10.4 mph - N/A   Clear
2:35 PM 48.2 °F - 32.0 °F 54% 30.11 in 10.0 mi SSW 13.8 mph - N/A   Clear
2:55 PM 49.5 °F - 31.5 °F 50% 30.11 in 10.0 mi South 10.4 mph 17.3 mph N/A   Clear
3:15 PM 50.7 °F - 32.5 °F 50% 30.10 in 10.0 mi South 12.7 mph 16.1 mph N/A   Clear
3:35 PM 51.4 °F - 32.9 °F 49% 30.09 in 10.0 mi SSW 9.2 mph - N/A   Clear
3:55 PM 52.7 °F - 34.3 °F 50% 30.10 in 10.0 mi South 10.4 mph - N/A   Clear
4:15 PM 54.1 °F - 31.6 °F 42% 30.09 in 10.0 mi SW 10.4 mph - N/A   Clear
4:35 PM 54.7 °F - 32.9 °F 44% 30.09 in 10.0 mi SW 13.8 mph - N/A   Clear
4:55 PM 55.4 °F - 34.3 °F 45% 30.09 in 10.0 mi SW 8.1 mph - N/A   Clear
5:15 PM 55.0 °F - 33.8 °F 45% 30.09 in 10.0 mi South 5.8 mph - N/A   Clear
5:35 PM 53.8 °F - 33.1 °F 45% 30.09 in 10.0 mi South 4.6 mph - N/A   Clear
5:55 PM 52.7 °F - 36.0 °F 53% 30.09 in 10.0 mi SE 5.8 mph - N/A   Clear
6:15 PM 52.5 °F - 36.5 °F 54% 30.09 in 10.0 mi SE 5.8 mph - N/A   Clear
6:35 PM 51.4 °F - 34.9 °F 53% 30.09 in 10.0 mi ESE 6.9 mph - N/A   Clear
6:55 PM 49.6 °F - 34.7 °F 56% 30.10 in 10.0 mi ESE 6.9 mph - N/A   Clear
7:15 PM 47.3 °F - 34.3 °F 61% 30.10 in 10.0 mi SE 5.8 mph - N/A   Clear
7:35 PM 46.6 °F - 33.1 °F 59% 30.10 in 10.0 mi SE 5.8 mph - N/A   Clear
7:55 PM 45.7 °F 42.7 °F 32.4 °F 60% 30.11 in 10.0 mi SE 5.8 mph - N/A   Clear
8:15 PM 45.0 °F 40.6 °F 32.5 °F 62% 30.10 in 10.0 mi SE 8.1 mph - N/A   Clear
8:35 PM 42.4 °F 37.5 °F 33.1 °F 69% 30.10 in 10.0 mi SE 8.1 mph - N/A   Clear
8:55 PM 42.4 °F 39.6 °F 32.0 °F 67% 30.11 in 10.0 mi ESE 4.6 mph - N/A   Clear
9:15 PM 42.4 °F 38.8 °F 32.0 °F 67% 30.11 in 10.0 mi SE 5.8 mph - N/A   Clear
9:35 PM 40.1 °F 36.1 °F 31.6 °F 72% 30.11 in 10.0 mi ESE 5.8 mph - N/A   Clear
9:55 PM 41.0 °F 38.0 °F 31.8 °F 70% 30.11 in 10.0 mi ESE 4.6 mph - N/A   Clear
10:15 PM 40.8 °F 37.8 °F 31.6 °F 70% 30.11 in 10.0 mi ESE 4.6 mph - N/A   Clear
10:35 PM 40.1 °F 38.0 °F 31.6 °F 72% 30.11 in 10.0 mi ESE 3.5 mph - N/A   Clear
10:55 PM 38.5 °F 36.1 °F 31.3 °F 75% 30.11 in 10.0 mi SE 3.5 mph - N/A   Clear
11:15 PM 39.4 °F 37.2 °F 31.6 °F 74% 30.11 in 10.0 mi SE 3.5 mph - N/A   Clear
11:35 PM 39.2 °F 35.9 °F 31.8 °F 75% 30.11 in 10.0 mi SE 4.6 mph - N/A   Clear
11:55 PM 38.7 °F 36.3 °F 31.6 °F 76% 30.10 in 10.0 mi SE 3.5 mph - N/A   Clear